Home > Weather > Montpelier > Past weeks

Flag for USA Weather for the Past 2 Weeks in Montpelier, Vermont, USA

Now
41 °F

Overcast.


Feels Like: 39 °F
Forecast: 40 / 58 °F
Wind: 3 mph from North

Location: Knapp State Airport

Current Time: May 3, 2016 at 8:59:31 AM

Latest Report: May 3, 2016 at 7:51 AM


Visibility: 10 mi

Pressure: 29.98 "Hg

Humidity: 89%

Dew Point: 38 °F

Location of MontpelierLocation

Historic Weather in Montpelier — Graph

°F

Montpelier Temperature Yesterday

Maximum temperature yesterday: 45 °F (at 5:51 PM)
Minimum temperature yesterday: 38 °F (at 3:51 AM)
Average temperature yesterday: 42 °F

High & Low Weather Summary for the Past Weeks

 TemperatureHumidityPressure
High72 °F (Apr 21, 4:51 PM)100% (Apr 19, 4:51 AM)30.37 "Hg (Apr 19, 4:51 AM)
Low22 °F (Apr 27, 3:51 AM)9% (Apr 21, 1:51 PM)29.81 "Hg (Apr 26, 2:02 PM)
Average43 °F58%30.08 "Hg
* Reported Apr 18 6:51 AM — May 3 6:51 AM, Montpelier, Weather by CustomWeather, © 2016

Note: Actual official high and low records may vary slightly from our data, if they occured in-between our weather recording intervals... More about our weather records

Advertising

Montpelier Weather History for the Previous 24 Hours

Scroll right to see more
 ConditionsComfort  
Time TempWeatherWind HumidityBarometerVisibility
6:51 AM
Tue, May 3
41 °FOvercast.5 mph86%29.97 "Hg10 mi
5:51 AM41 °FOvercast.5 mph93%29.97 "Hg10 mi
4:51 AM41 °FOvercast.3 mph93%29.96 "Hg10 mi
3:51 AM41 °FOvercast.6 mph93%29.97 "Hg10 mi
2:51 AM41 °FOvercast.5 mph96%29.97 "Hg10 mi
2:00 AM41 °FPassing clouds.7 mph93%29.95 "Hg10 mi
12:51 AM42 °FMostly cloudy.10 mph92%29.99 "Hg10 mi
11:51 PM
Mon, May 2
42 °FMostly cloudy.9 mph92%29.99 "Hg10 mi
10:51 PM43 °FLow clouds.8 mph93%30.01 "Hg10 mi
9:51 PM43 °FMostly cloudy.8 mph93%30.01 "Hg10 mi
8:51 PM44 °FOvercast.No wind96%29.98 "Hg10 mi
7:51 PM44 °FMore clouds than sun.No wind96%29.99 "Hg7 mi
6:51 PM45 °FFog.3 mph93%29.98 "Hg3 mi
5:51 PM45 °FMore clouds than sun.No wind90%29.97 "Hg10 mi
4:54 PM44 °FLight rain. Fog.5 mph93%29.93 "Hg4 mi
3:51 PM43 °FRain. Fog.No wind97%29.98 "Hg3 mi
2:51 PM43 °FLight rain. Fog.5 mph89%29.98 "Hg5 mi
2:00 PM42 °FRain. Fog.3 mph96%29.95 "Hg4 mi
1:51 PM42 °FRain. Fog.No wind96%29.99 "Hg2 mi
12:51 PM43 °FLight rain. Fog.3 mph93%30.01 "Hg5 mi
11:51 AM43 °FFog.8 mph89%30.02 "Hg6 mi
10:51 AM42 °FFog.6 mph92%30.03 "Hg3 mi
9:51 AM41 °FFog.7 mph93%30.06 "Hg3 mi
8:51 AM40 °FFog.3 mph93%30.06 "Hg6 mi
Weather by CustomWeather, © 2016

See weather overviewHow to use our weather pages